STARLINK-32362, 61845

Orbit data source: Space-Track

STARLINK-32362, 61845 is a payload satellite owned by SpaceX/Seattle (US) in LEO that was launched on Thu, 07 Nov 2024 UTC via an FALCON 9 launch vehicle from the Air Force Eastern Test Range (AFETR). Payloads include a variety of satellites, spacecraft, and rockets equipped with specific instruments for various scientific and technological missions. These include communications satellites like Starlink; space stations such as the ISS; scientific satellites like the Hubble; Earth observation satellites from companies like Planet Labs, Umbra, and HawkEye 360; GPS; miniature CubeSats for education and research; and military/defense satellites.

Loading next visibility...
STARLINK-32362 details
Identifier
61845, 2024-202A
Orbit
LEO
Last TLE update16 hours ago
Origin
Flag of USSpaceX/Seattle (US)
ManufacturerSpaceX/Seattle
MissionOperational spacecraft
Bus & MotorSTARLINK V2M, Unknown motor
Mass730 kg wet, ~700 kg dry
Launch date (UTC)
2024-11-07 (2 months ago)
Launch vehicle
FALCON 9
Launch site
Air Force Eastern Test Range (AFETR)
Object type
Payload
Rocket body
Debris
Shape & HBRUnknown
Radar Cross SectionLarge (>1 m²)

Expand to show TLE details & history

TLE from 16 hours ago
0 STARLINK-32362
1 61845U 24202A   24361.28442433 -.00000460  00000-0 -37429-5 0  9992
2 61845  43.0002 203.0155 0001995 250.6264 109.4377 15.40689662  8769
Epoch: 2024-12-26T06:49Z
Definitive object data (Epoch: 2024-12-26T06:49:34.262Z)
Latitude
Longitude5.35672°
Altitude444.3 km
Speed7.647 km/s
True Right ascension13h 32m 03s
True Declination0° 00' 00"
Sunlit
Object was in daylight at TLE epoch
Visualization TLE readout
Latitude18.65458°
Longitude160.36102°
Altitude443.621 km
Speed7.649 km/s
Apparent Right ascension02h 45m 21s
Apparent Declination-35° 55' 21"
Sunlit
Object is in daylight
Visualization observer readout
Local Sidereal Time22:25:47
Azimuth132.439° SE
Elevation-6.482°
Doppler factor1
Orbital elements
Apogee altitude447.39 km
Perigee altitude444.667 km
Semi-major axis6,824.166 km
Eccentricity0.0001995
Inclination43.0002°
RAAN203.0155°
Arg. of periapsis250.6264°
True anomaly109.45926°
Mean anomaly109.4377°
Eccentric anomaly109.44848°
Mean motion3.85007 °/min
BSTAR-0.0000037429
Orbital period93.5 mins
Loading maneuver chart data...
Loading historical data...
Loading historical data...
Loading historical data...
Loading historical data...
Loading historical data...
Loading historical data...
Loading historical data...

STARLINK-32362 Visibility forecast

Observer location: undefined°, undefined

Span
Click to sort rows by Start time (UTC) header in descending order
Start Az.
Max El. time (UTC)
Max El. Az.
Max El.
End time (UTC)
End Az.
5 mins2024-12-27 17:18:32.612Z231.561° WSW2024-12-27 17:20:32.612Z125.571° SE41.282°2024-12-27 17:23:32.612Z75.504° E
5 mins2024-12-27 18:56:32.612Z286.346° WNW2024-12-27 18:58:32.612Z3.624° NNE38.11°2024-12-27 19:01:32.612Z70.953° E
5 mins2024-12-27 20:34:32.612Z294.532° NW2024-12-27 20:36:32.612Z350.708° N41.376°2024-12-27 20:39:32.612Z92.462° ESE
5 mins2024-12-27 22:12:32.612Z269.104° W2024-12-27 22:14:32.612Z217.173° SW31.481°2024-12-27 22:17:32.612Z142.296° SSE
|